User: anonymous   Login
Location: Asheville, NC
(35.6000°N, 82.5500°W)
Time: 18:45:46
(UTC-05:00)
Language:

CAS-4B - Orbit

View from above orbital plane
View from above orbital plane
View from above satellite
View from above satellite

Ground track
Ground track

The orbit data is extracted from the following two-line orbital elements,

1 42759U 17034B   18048.20323806  .00000200  00000-0  25920-4 0  9991
2 42759  43.0189  21.9060 0007346  70.0232 313.7377 15.09190510 37323
Epoch (UTC): 17 February 2018 04:52:39
Eccentricity: 0.0007346
inclination: 43.0189°
perigee height: 533 km
apogee height: 544 km
right ascension of ascending node: 21.9060°
argument of perigee: 70.0232°
revolutions per day: 15.09190510
mean anomaly at epoch: 313.7377°
orbit number at epoch: 3732

The dashed part of the orbit path shows where the satellite is in the earth's shadow,  

DLR